This is the latest recevied weather packets stored in our database for station/object AG1T-20. If no packets are shown the sender has not sent any weather packets the latest 10 day(s).
| Time | Temp. | Humidity | Pressure | Rain* | Wind** | Luminosity | Snow |
|---|---|---|---|---|---|---|---|
| 1777671005 | 17.22° C | 26% | 1021.9 hPa | 0 mm | - | 581 W/m² | - |
| 1777670405 | 17.22° C | 28% | 1021.9 hPa | 0 mm | - | 613 W/m² | - |
| 1777669805 | 17.78° C | 29% | 1021.9 hPa | 0 mm | - | 640 W/m² | - |
| 1777669205 | 17.22° C | 28% | 1021.9 hPa | 0 mm | - | 670 W/m² | - |
| 1777668605 | 16.67° C | 30% | 1022.1 hPa | 0 mm | - | 697 W/m² | - |
| 1777668005 | 17.22° C | 29% | 1022.1 hPa | 0 mm | - | 725 W/m² | - |
| 1777667405 | 16.67° C | 29% | 1022.1 hPa | 0 mm | - | 751 W/m² | - |
| 1777666805 | 16.67° C | 29% | 1022.1 hPa | 0 mm | - | 777 W/m² | - |
| 1777666205 | 16.11° C | 31% | 1022.1 hPa | 0 mm | - | 800 W/m² | - |
| 1777665605 | 15.56° C | 29% | 1022.1 hPa | 0 mm | - | 824 W/m² | - |
| 1777665005 | 16.11° C | 30% | 1022.5 hPa | 0 mm | - | 843 W/m² | - |
| 1777664405 | 16.11° C | 32% | 1022.5 hPa | 0 mm | - | 862 W/m² | - |
| 1777663805 | 16.11° C | 34% | 1022.5 hPa | 0 mm | - | 879 W/m² | - |
| 1777663205 | 15.56° C | 34% | 1022.5 hPa | 0 mm | - | 895 W/m² | - |
| 1777662605 | 15.56° C | 32% | 1022.5 hPa | 0 mm | - | 909 W/m² | - |
| 1777662005 | 15.56° C | 34% | 1022.5 hPa | 0 mm | - | 920 W/m² | - |
| 1777661405 | 15.56° C | 31% | 1023.1 hPa | 0 mm | - | 934 W/m² | - |
| 1777660805 | 15° C | 32% | 1023.1 hPa | 0 mm | - | 947 W/m² | - |
| 1777660205 | 15.56° C | 31% | 1023.1 hPa | 0 mm | - | 955 W/m² | - |
| 1777659605 | 15° C | 33% | 1023.1 hPa | 0 mm | - | 961 W/m² | - |
| 1777659005 | 13.89° C | 34% | 1023.1 hPa | 0 mm | - | 966 W/m² | - |
| 1777658405 | 14.44° C | 32% | 1023.1 hPa | 0 mm | - | 971 W/m² | - |
| 1777657805 | 13.89° C | 33% | 1023.5 hPa | 0 mm | - | 971 W/m² | - |
| 1777657205 | 13.89° C | 34% | 1023.5 hPa | 0 mm | - | 966 W/m² | - |
| 1777656607 | 13.33° C | 36% | 1023.5 hPa | 0 mm | - | 964 W/m² | - |
* Rain latest hour (hover to see other rain measurements)
** Current wind speed in m/s (hover to see current wind gust speed)